DW7098 Weather Reports


Display with metric or nautical units.
time (UTC)temp
F
wind
direction
speed
MPH
gust
MPH
rain 1hr
in
rain 24hr
in
rain mn
in
humidity
%
barometer
mb
20260905073050 55 117 0.0 0.0 0.00 0.00 0.00
20260905070106 55 117 0.0 1.0 0.00 0.00 0.00
20260905063034 56 158 0.0 0.0 0.00 0.00 0.00
20260905053036 57 68 0.0 0.0 0.00 0.00 0.00
20260905050124 58 68 0.0 2.0 0.00 0.00 0.00
20260905043037 59 72 1.0 2.0 0.00 0.00 0.00
20260905040106 60 67 0.0 2.0 0.00 0.00 0.00
20260905030115 62 65 0.0 1.0 0.00 0.00 0.00
20260905023056 63 65 0.0 1.0 0.00 0.00 0.00
20260905020104 64 65 0.0 2.0 0.00 0.00 0.00
20260905013052 66 73 0.0 4.0 0.00 0.00 0.00
20260905010107 66 193 0.0 4.0 0.00 0.00 0.00
20260905003100 67 76 1.0 6.0 0.00 0.00 0.00
20260905000106 66 73 1.0 4.0 0.00 0.00 0.00
20260904233047 67 72 1.0 5.0 0.00 0.00 0.00
20260904223049 70 301 2.0 6.0 0.00 0.00 0.00
20260904220116 72 50 2.0 5.0 0.00 0.00 0.00
20260904213104 70 66 2.0 6.0 0.00 0.00 0.00
20260904203041 67 300 1.0 6.0 0.00 0.00 0.00
20260904200124 68 27 3.0 8.0 0.00 0.00 0.00
20260904193045 65 54 2.0 11.0 0.00 0.00 0.00
20260904190121 63 130 4.0 7.0 0.00 0.00 0.00
20260904183042 62 56 4.0 7.0 0.00 0.00 0.00
20260904170120 57 83 1.0 4.0 0.00 0.00 0.00
20260904160120 54 102 1.0 3.0 0.00 0.00 0.00
20260904143049 51 82 0.0 1.0 0.00 0.00 0.00
20260904140119 50 80 0.0 1.0 0.00 0.00 0.00
20260904133038 50 109 0.0 1.0 0.00 0.00 0.00
20260904130117 49 77 0.0 1.0 0.00 0.00 0.00
20260904123102 49 68 0.0 0.0 0.00 0.00 0.00
20260904120109 50 69 0.0 1.0 0.00 0.00 0.00
20260904110108 50 68 0.0 1.0 0.00 0.00 0.00
20260904103105 51 68 0.0 1.0 0.00 0.00 0.00
20260904100118 51 68 0.0 1.0 0.00 0.00 0.00
20260904090110 52 68 0.0 1.0 0.00 0.00 0.00
20260904080113 53 67 0.0 2.0 0.00 0.00 0.00